TKY91K UTTT-RJCC

Flight info

Callsign TKY91K
Flight time N/A
Altitude 37000
Route TISIB1B TISIB L143 TIPSA M610 RULAD/K0865S1130 A343 POSOT B215 FKG W188 GOVSA W66 DKO W69 EGILO/K0870S1190 W69 HUR W64 BUMDU G212 TGO G341 WQG B451 BISUN/K0861F390 B451 ARLAS/N0468F390 DCT KURIS
Aircraft A339/H-SDE3GHIJ2J3J5M1RVWXY/LB2D1

Departure

Time N/A
Airport UTTT

Arrival

Time 2026-02-18 22:05
Airport New Chitose Airport (RJCC)
Time Latitude Longitude Altitude Speed Heading
2026-02-18 14:35 41.26238 69.28136 1413 ft 0 kts 25°
2026-02-18 14:46 41.26239 69.28137 1411 ft 1 kts 27°
2026-02-18 14:46 41.26245 69.28151 1413 ft 3 kts 51°
2026-02-18 14:46 41.26244 69.28181 1411 ft 4 kts 94°
2026-02-18 14:47 41.26222 69.28215 1410 ft 6 kts 133°
2026-02-18 14:47 41.26191 69.28270 1416 ft 9 kts 116°
2026-02-18 14:47 41.26190 69.28360 1414 ft 11 kts 84°
2026-02-18 14:47 41.26191 69.28473 1415 ft 13 kts 94°
2026-02-18 14:48 41.26183 69.28608 1416 ft 16 kts 93°
2026-02-18 14:48 41.26183 69.28761 1416 ft 18 kts 87°
2026-02-18 14:48 41.26191 69.28932 1413 ft 19 kts 88°
2026-02-18 14:48 41.26196 69.29120 1416 ft 21 kts 87°
2026-02-18 14:49 41.26211 69.29536 1414 ft 24 kts 87°
2026-02-18 14:49 41.26218 69.29754 1414 ft 23 kts 88°
2026-02-18 14:49 41.26224 69.29959 1416 ft 20 kts 89°
2026-02-18 14:50 41.26173 69.30027 1417 ft 10 kts 145°
2026-02-18 14:50 41.26114 69.30078 1416 ft 10 kts 162°
2026-02-18 14:50 41.26060 69.30032 1416 ft 10 kts 248°
2026-02-18 14:50 41.26045 69.29929 1411 ft 12 kts 260°
2026-02-18 14:51 41.26021 69.29704 1416 ft 55 kts 261°
2026-02-18 14:51 41.25929 69.28872 1414 ft 126 kts 262°
2026-02-18 14:51 41.25772 69.27456 1415 ft 180 kts 261°
2026-02-18 14:51 41.25572 69.25690 1734 ft 198 kts 261°
2026-02-18 14:52 41.25381 69.23914 2585 ft 190 kts 260°
2026-02-18 14:52 41.25197 69.22181 3314 ft 190 kts 259°
2026-02-18 14:52 41.24999 69.20408 3628 ft 193 kts 259°
2026-02-18 14:52 41.24796 69.18614 3670 ft 200 kts 259°
2026-02-18 14:53 41.24192 69.14687 4043 ft 238 kts 250°
2026-02-18 14:53 41.23707 69.12478 4285 ft 259 kts 253°
2026-02-18 14:53 41.23164 69.10115 4581 ft 273 kts 249°
2026-02-18 14:54 41.22437 69.07746 5199 ft 274 kts 243°
2026-02-18 14:54 41.21546 69.05553 5842 ft 273 kts 237°
2026-02-18 14:54 41.20474 69.03473 6476 ft 273 kts 232°
2026-02-18 14:54 41.19246 69.01541 7077 ft 274 kts 227°
2026-02-18 14:55 41.17882 68.99771 7686 ft 275 kts 221°
2026-02-18 14:55 41.16390 68.98167 8299 ft 276 kts 217°
2026-02-18 14:55 41.14785 68.96748 8922 ft 278 kts 212°
2026-02-18 14:55 41.13070 68.95523 9538 ft 281 kts 207°
2026-02-18 14:56 41.11263 68.94511 10128 ft 284 kts 202°
2026-02-18 14:56 41.09330 68.93694 10358 ft 301 kts 197°
2026-02-18 14:56 41.07217 68.93111 10511 ft 319 kts 191°
2026-02-18 14:56 41.04943 68.92825 10695 ft 336 kts 184°
2026-02-18 14:57 41.00204 68.93323 11695 ft 346 kts 171°
2026-02-18 14:57 40.97864 68.94115 12183 ft 351 kts 165°
2026-02-18 14:57 40.95565 68.95288 12704 ft 356 kts 158°
2026-02-18 14:58 40.93357 68.96840 13209 ft 361 kts 150°
2026-02-18 14:58 40.91287 68.98752 13720 ft 366 kts 143°
2026-02-18 14:58 40.89383 69.01021 14188 ft 370 kts 136°
2026-02-18 14:58 40.87693 69.03607 14663 ft 374 kts 129°
2026-02-18 14:59 40.86242 69.06491 15123 ft 379 kts 121°
2026-02-18 14:59 40.85083 69.09579 15588 ft 382 kts 114°
2026-02-18 14:59 40.84202 69.12953 16052 ft 386 kts 106°
2026-02-18 14:59 40.83666 69.16400 16504 ft 390 kts 98°
2026-02-18 15:00 40.83469 69.19991 16954 ft 394 kts 91°
2026-02-18 15:00 40.83633 69.23610 17401 ft 397 kts 83°
2026-02-18 15:00 40.84164 69.27202 17842 ft 400 kts 75°
2026-02-18 15:00 40.85046 69.30696 18275 ft 403 kts 69°
2026-02-18 15:01 40.86970 69.37673 19098 ft 407 kts 70°
2026-02-18 15:01 40.87922 69.41205 19509 ft 409 kts 70°
2026-02-18 15:01 40.88875 69.44765 19925 ft 411 kts 70°
2026-02-18 15:02 40.89831 69.48345 20338 ft 413 kts 70°
2026-02-18 15:02 40.90791 69.51936 20749 ft 416 kts 70°
2026-02-18 15:02 40.91747 69.55515 21144 ft 418 kts 70°
2026-02-18 15:02 40.92717 69.59153 21576 ft 420 kts 70°
2026-02-18 15:03 40.94674 69.66499 22407 ft 425 kts 70°
2026-02-18 15:03 40.95659 69.70202 22816 ft 428 kts 70°
2026-02-18 15:03 40.96651 69.73940 23246 ft 431 kts 70°
2026-02-18 15:04 40.97644 69.77687 23647 ft 433 kts 70°
2026-02-18 15:04 40.98645 69.81471 24005 ft 436 kts 70°
2026-02-18 15:04 40.99650 69.85271 24347 ft 438 kts 70°
2026-02-18 15:04 41.00642 69.89030 24686 ft 441 kts 70°
2026-02-18 15:05 41.02687 69.96793 25391 ft 446 kts 70°
2026-02-18 15:05 41.03698 70.00641 25746 ft 448 kts 70°
2026-02-18 15:05 41.04724 70.04552 26102 ft 450 kts 70°
2026-02-18 15:06 41.05752 70.08477 26431 ft 453 kts 70°
2026-02-18 15:06 41.06787 70.12429 26754 ft 455 kts 70°
2026-02-18 15:06 41.07824 70.16401 27106 ft 457 kts 70°
2026-02-18 15:06 41.08868 70.20401 27432 ft 460 kts 70°
2026-02-18 15:07 41.10012 70.24361 27754 ft 461 kts 65°
2026-02-18 15:07 41.11449 70.28161 28092 ft 462 kts 59°
2026-02-18 15:07 41.13005 70.31912 28370 ft 465 kts 60°
2026-02-18 15:07 41.14549 70.35680 28708 ft 466 kts 60°
2026-02-18 15:08 41.16099 70.39485 29008 ft 469 kts 60°
2026-02-18 15:08 41.17649 70.43304 29312 ft 471 kts 60°
2026-02-18 15:08 41.19205 70.47141 29618 ft 473 kts 60°
2026-02-18 15:08 41.20766 70.50999 29906 ft 475 kts 60°
2026-02-18 15:09 41.23891 70.58730 30474 ft 480 kts 60°
2026-02-18 15:09 41.25472 70.62647 30749 ft 482 kts 60°
2026-02-18 15:09 41.27058 70.66583 31022 ft 484 kts 60°
2026-02-18 15:10 41.28646 70.70532 31292 ft 486 kts 60°
2026-02-18 15:10 41.30248 70.74518 31547 ft 488 kts 60°
2026-02-18 15:10 41.31848 70.78506 31814 ft 490 kts 59°
2026-02-18 15:10 41.33454 70.82513 32062 ft 492 kts 59°
2026-02-18 15:11 41.35067 70.86545 32333 ft 494 kts 59°
2026-02-18 15:11 41.36683 70.90590 32582 ft 495 kts 59°
2026-02-18 15:11 41.38305 70.94652 32829 ft 497 kts 59°
2026-02-18 15:11 41.39930 70.98724 32987 ft 499 kts 59°
2026-02-18 15:12 41.41010 71.01435 33132 ft 499 kts 59°
2026-02-18 15:12 41.43166 71.06859 33347 ft 501 kts 59°
2026-02-18 15:12 41.44798 71.10966 33526 ft 502 kts 59°
2026-02-18 15:12 41.46425 71.15071 33693 ft 502 kts 59°
2026-02-18 15:13 41.49138 71.21929 34021 ft 501 kts 59°
2026-02-18 15:13 41.50717 71.26079 34216 ft 501 kts 60°
2026-02-18 15:13 41.52242 71.30257 34371 ft 501 kts 60°
2026-02-18 15:14 41.53762 71.34455 34475 ft 502 kts 60°
2026-02-18 15:14 41.55283 71.38645 34627 ft 501 kts 60°
2026-02-18 15:14 41.56810 71.42830 34767 ft 501 kts 60°
2026-02-18 15:14 41.58340 71.47015 34914 ft 501 kts 60°
2026-02-18 15:15 41.59870 71.51205 35051 ft 501 kts 60°
2026-02-18 15:15 41.61397 71.55393 35202 ft 501 kts 60°
2026-02-18 15:15 41.62926 71.59591 35322 ft 500 kts 60°
2026-02-18 15:15 41.64443 71.63758 35455 ft 501 kts 60°
2026-02-18 15:16 41.65972 71.67961 35587 ft 501 kts 60°
2026-02-18 15:16 41.67474 71.72096 35729 ft 501 kts 60°
2026-02-18 15:16 41.68993 71.76287 35854 ft 501 kts 60°
2026-02-18 15:16 41.70512 71.80483 36007 ft 501 kts 60°
2026-02-18 15:17 41.73551 71.88897 36249 ft 500 kts 59°
2026-02-18 15:17 41.75128 71.93035 36362 ft 499 kts 57°
2026-02-18 15:17 41.76755 71.97118 36508 ft 498 kts 57°
2026-02-18 15:18 41.78398 72.01219 36666 ft 497 kts 57°
2026-02-18 15:18 41.80022 72.05302 36818 ft 497 kts 57°
2026-02-18 15:18 41.81637 72.09396 36946 ft 496 kts 57°
2026-02-18 15:18 41.83246 72.13502 37060 ft 497 kts 57°
2026-02-18 15:19 41.84849 72.17606 37195 ft 497 kts 57°
2026-02-18 15:19 41.88043 72.25799 37193 ft 495 kts 57°
2026-02-18 15:20 41.91203 72.33932 37201 ft 495 kts 58°
2026-02-18 15:20 41.94397 72.42161 37210 ft 496 kts 58°
2026-02-18 15:21 41.99207 72.54607 37214 ft 501 kts 58°
2026-02-18 15:21 42.02426 72.62965 37216 ft 504 kts 58°
2026-02-18 15:22 42.05648 72.71361 37207 ft 505 kts 58°
2026-02-18 15:22 42.08864 72.79766 37212 ft 505 kts 58°
2026-02-18 15:23 42.12055 72.88119 37210 ft 504 kts 58°
2026-02-18 15:23 42.15252 72.96530 37180 ft 504 kts 58°
2026-02-18 15:24 42.18450 73.04957 37198 ft 504 kts 58°
2026-02-18 15:24 42.21634 73.13377 37161 ft 503 kts 58°
2026-02-18 15:25 42.26395 73.26010 37164 ft 503 kts 59°
2026-02-18 15:26 42.29549 73.34426 37159 ft 502 kts 59°
2026-02-18 15:26 42.32706 73.42851 37153 ft 502 kts 59°
2026-02-18 15:27 42.35851 73.51273 37163 ft 502 kts 59°
2026-02-18 15:27 42.39096 73.59558 37161 ft 498 kts 52°
2026-02-18 15:28 42.43405 73.66773 37143 ft 489 kts 39°
2026-02-18 15:28 42.48278 73.73179 37130 ft 489 kts 39°
2026-02-18 15:29 42.55554 73.82898 37107 ft 490 kts 39°
2026-02-18 15:29 42.60416 73.89398 37087 ft 491 kts 39°
2026-02-18 15:30 42.65248 73.95879 37078 ft 491 kts 39°
2026-02-18 15:30 42.70102 74.02404 37065 ft 490 kts 39°
2026-02-18 15:31 42.74953 74.08938 37049 ft 491 kts 39°
2026-02-18 15:31 42.79818 74.15507 37031 ft 491 kts 39°
2026-02-18 15:32 42.84663 74.22062 37032 ft 491 kts 39°
2026-02-18 15:32 42.89471 74.28585 37035 ft 491 kts 40°
2026-02-18 15:33 42.96726 74.38454 37045 ft 491 kts 40°
2026-02-18 15:34 43.01566 74.45057 37048 ft 491 kts 40°
2026-02-18 15:34 43.06358 74.51718 37044 ft 493 kts 44°
2026-02-18 15:35 43.10506 74.59266 37046 ft 497 kts 49°
2026-02-18 15:35 43.14482 74.67035 37043 ft 498 kts 50°
2026-02-18 15:36 43.18409 74.74813 37047 ft 499 kts 50°
2026-02-18 15:36 43.22360 74.82631 37053 ft 499 kts 50°
2026-02-18 15:37 43.28287 74.94377 37061 ft 499 kts 50°
2026-02-18 15:37 43.32230 75.02216 37072 ft 498 kts 50°
2026-02-18 15:38 43.36140 75.10012 37079 ft 498 kts 50°
2026-02-18 15:38 43.40526 75.17273 37086 ft 492 kts 43°
2026-02-18 15:39 43.45091 75.24311 37094 ft 492 kts 43°
2026-02-18 15:39 43.49640 75.31348 37109 ft 492 kts 43°
2026-02-18 15:40 43.54196 75.38409 37117 ft 492 kts 43°
2026-02-18 15:40 43.58743 75.45473 37120 ft 492 kts 43°
2026-02-18 15:41 43.62474 75.53409 37124 ft 506 kts 64°
2026-02-18 15:41 43.63525 75.58077 37123 ft 512 kts 75°
2026-02-18 15:41 43.63944 75.62985 37121 ft 518 kts 86°
2026-02-18 15:42 43.63732 75.67946 37127 ft 521 kts 95°
2026-02-18 15:42 43.62736 75.77865 37134 ft 521 kts 94°
2026-02-18 15:43 43.62080 75.87816 37137 ft 520 kts 91°
2026-02-18 15:43 43.61617 75.97721 37143 ft 520 kts 91°
2026-02-18 15:44 43.61169 76.07670 37145 ft 519 kts 91°
2026-02-18 15:44 43.60707 76.17618 37146 ft 519 kts 91°
2026-02-18 15:45 43.59998 76.32539 37138 ft 518 kts 90°
2026-02-18 15:45 43.59944 76.42445 37133 ft 517 kts 87°
2026-02-18 15:46 43.59893 76.57328 37122 ft 516 kts 87°
2026-02-18 15:47 43.59838 76.67161 37117 ft 516 kts 87°
2026-02-18 15:47 43.59773 76.77061 37109 ft 515 kts 87°
2026-02-18 15:48 43.59697 76.86941 37103 ft 515 kts 87°
2026-02-18 15:48 43.59602 76.96826 37094 ft 515 kts 88°
2026-02-18 15:49 43.59457 77.11638 37089 ft 514 kts 88°
2026-02-18 15:49 43.59299 77.21498 37088 ft 514 kts 89°
2026-02-18 15:50 43.58934 77.31289 37085 ft 514 kts 90°
2026-02-18 15:50 43.58568 77.41141 37082 ft 514 kts 89°
2026-02-18 15:51 43.58216 77.50986 37067 ft 513 kts 89°
2026-02-18 15:51 43.58037 77.60803 37065 ft 512 kts 87°
2026-02-18 15:52 43.57961 77.70616 37071 ft 512 kts 87°
2026-02-18 15:52 43.57843 77.80447 37089 ft 512 kts 87°
2026-02-18 15:53 43.57627 77.95122 37101 ft 512 kts 88°
2026-02-18 15:54 43.57471 78.04946 37101 ft 512 kts 88°
2026-02-18 15:54 43.57308 78.14763 37107 ft 512 kts 88°
2026-02-18 15:55 43.57138 78.24592 37104 ft 512 kts 88°
2026-02-18 15:55 43.56960 78.34408 37122 ft 512 kts 88°
2026-02-18 15:56 43.56774 78.44224 37126 ft 512 kts 88°
2026-02-18 15:56 43.56580 78.53976 37141 ft 512 kts 88°
2026-02-18 15:57 43.56274 78.68688 37163 ft 511 kts 88°
2026-02-18 15:57 43.56058 78.78488 37187 ft 511 kts 88°
2026-02-18 15:58 43.55833 78.88285 37187 ft 510 kts 88°
2026-02-18 15:58 43.55601 78.98060 37202 ft 510 kts 88°
2026-02-18 15:59 43.55362 79.07819 37201 ft 509 kts 88°
2026-02-18 15:59 43.55155 79.15930 37195 ft 508 kts 88°
2026-02-18 16:00 43.54902 79.25645 37193 ft 507 kts 88°
2026-02-18 16:00 43.54639 79.35373 37190 ft 507 kts 88°
2026-02-18 16:01 43.54230 79.49944 37198 ft 507 kts 88°
2026-02-18 16:02 43.53949 79.59592 37195 ft 506 kts 88°
2026-02-18 16:02 43.53658 79.69283 37191 ft 506 kts 88°
2026-02-18 16:03 43.53359 79.78988 37190 ft 506 kts 88°
2026-02-18 16:03 43.53052 79.88683 37183 ft 505 kts 89°
2026-02-18 16:04 43.52739 79.98351 37181 ft 505 kts 89°
2026-02-18 16:04 43.52419 80.07958 37179 ft 504 kts 89°
2026-02-18 16:05 43.51922 80.22420 37175 ft 504 kts 89°
2026-02-18 16:05 43.51581 80.32061 37172 ft 503 kts 89°
2026-02-18 16:06 43.51232 80.41679 37174 ft 503 kts 89°
2026-02-18 16:06 43.50875 80.51295 37172 ft 502 kts 89°
2026-02-18 16:07 43.50510 80.60912 37166 ft 502 kts 89°
2026-02-18 16:07 43.50138 80.70511 37168 ft 501 kts 89°
2026-02-18 16:08 43.49853 80.80086 37166 ft 500 kts 86°
2026-02-18 16:08 43.49762 80.89590 37169 ft 499 kts 86°
2026-02-18 16:09 43.49569 81.03931 37175 ft 499 kts 87°
2026-02-18 16:10 43.49407 81.13494 37174 ft 499 kts 87°
2026-02-18 16:10 43.49237 81.23059 37184 ft 500 kts 87°
2026-02-18 16:11 43.49055 81.32626 37177 ft 499 kts 87°
2026-02-18 16:11 43.48874 81.42188 37181 ft 498 kts 87°
2026-02-18 16:12 43.48683 81.51718 37185 ft 498 kts 87°
2026-02-18 16:12 43.48486 81.61218 37195 ft 498 kts 87°
2026-02-18 16:13 43.48175 81.75520 37211 ft 497 kts 87°
2026-02-18 16:13 43.47953 81.85035 37211 ft 497 kts 87°
2026-02-18 16:14 43.47723 81.94555 37223 ft 497 kts 87°
2026-02-18 16:14 43.47487 82.04062 37232 ft 496 kts 87°
2026-02-18 16:15 43.47246 82.13490 37234 ft 496 kts 87°
2026-02-18 16:15 43.46996 82.22978 37235 ft 496 kts 87°
2026-02-18 16:16 43.46738 82.32460 37242 ft 495 kts 87°
2026-02-18 16:16 43.46472 82.41936 37252 ft 495 kts 87°
2026-02-18 16:17 43.46058 82.56160 37249 ft 495 kts 88°
2026-02-18 16:18 43.45774 82.65580 37245 ft 495 kts 88°
2026-02-18 16:18 43.45481 82.75055 37240 ft 495 kts 88°
2026-02-18 16:19 43.45180 82.84531 37230 ft 495 kts 88°
2026-02-18 16:19 43.44870 82.94027 37227 ft 495 kts 88°
2026-02-18 16:20 43.44554 83.03497 37222 ft 495 kts 88°
2026-02-18 16:20 43.44232 83.12904 37217 ft 495 kts 88°
2026-02-18 16:21 43.43730 83.27113 37213 ft 495 kts 88°
2026-02-18 16:21 43.43386 83.36586 37211 ft 495 kts 88°
2026-02-18 16:22 43.42625 83.46033 37209 ft 497 kts 92°
2026-02-18 16:22 43.41830 83.55469 37217 ft 497 kts 92°
2026-02-18 16:23 43.41024 83.64913 37223 ft 496 kts 92°
2026-02-18 16:23 43.40209 83.74282 37234 ft 496 kts 92°
2026-02-18 16:24 43.39379 83.83701 37248 ft 496 kts 92°
2026-02-18 16:24 43.38542 83.93112 37255 ft 495 kts 92°
2026-02-18 16:25 43.37275 84.07196 37271 ft 494 kts 92°
2026-02-18 16:26 43.36422 84.16572 37278 ft 494 kts 92°
2026-02-18 16:26 43.35569 84.25860 37281 ft 492 kts 92°
2026-02-18 16:27 43.34705 84.35195 37280 ft 492 kts 92°
2026-02-18 16:27 43.33827 84.44530 37284 ft 492 kts 92°
2026-02-18 16:28 43.32940 84.53852 37286 ft 492 kts 92°
2026-02-18 16:28 43.32049 84.63176 37294 ft 492 kts 92°
2026-02-18 16:29 43.30702 84.77103 37298 ft 492 kts 92°
2026-02-18 16:29 43.29791 84.86425 37288 ft 494 kts 93°
2026-02-18 16:30 43.28864 84.95763 37304 ft 492 kts 92°
2026-02-18 16:30 43.27940 85.05077 37295 ft 493 kts 93°
2026-02-18 16:31 43.27006 85.14400 37293 ft 492 kts 93°
2026-02-18 16:31 43.26061 85.23708 37273 ft 492 kts 93°
2026-02-18 16:32 43.25120 85.32957 37265 ft 492 kts 93°
2026-02-18 16:32 43.24161 85.42257 37273 ft 492 kts 93°
2026-02-18 16:33 43.22704 85.56217 37272 ft 492 kts 93°
2026-02-18 16:34 43.21741 85.65435 37269 ft 491 kts 93°
2026-02-18 16:34 43.20766 85.74696 37252 ft 490 kts 93°
2026-02-18 16:35 43.19777 85.83955 37259 ft 489 kts 93°
2026-02-18 16:35 43.19009 85.93176 37243 ft 482 kts 83°
2026-02-18 16:35 43.19365 85.97683 37225 ft 472 kts 72°
2026-02-18 16:36 43.20332 86.01879 37217 ft 463 kts 60°
2026-02-18 16:36 43.23703 86.09233 37207 ft 454 kts 49°
2026-02-18 16:37 43.29198 86.19884 37225 ft 456 kts 50°
2026-02-18 16:37 43.32743 86.27149 37198 ft 459 kts 50°
2026-02-18 16:38 43.36292 86.34433 37184 ft 459 kts 50°
2026-02-18 16:38 43.39841 86.41745 37137 ft 460 kts 50°
2026-02-18 16:39 43.43385 86.49061 37121 ft 458 kts 51°
2026-02-18 16:39 43.46915 86.56302 37107 ft 459 kts 50°
2026-02-18 16:40 43.50473 86.63619 37115 ft 459 kts 50°
2026-02-18 16:40 43.54022 86.70942 37119 ft 459 kts 50°
2026-02-18 16:41 43.59295 86.82019 37122 ft 461 kts 51°
2026-02-18 16:42 43.62794 86.89437 37143 ft 461 kts 51°
2026-02-18 16:42 43.66298 86.96867 37162 ft 461 kts 51°
2026-02-18 16:43 43.69782 87.04267 37185 ft 462 kts 51°
2026-02-18 16:43 43.73280 87.11722 37221 ft 462 kts 51°
2026-02-18 16:44 43.76758 87.19189 37238 ft 462 kts 51°
2026-02-18 16:44 43.80226 87.26691 37258 ft 463 kts 51°
2026-02-18 16:45 43.85429 87.37967 37265 ft 463 kts 51°
2026-02-18 16:45 43.88900 87.45512 37264 ft 464 kts 51°
2026-02-18 16:46 43.92470 87.52929 37273 ft 459 kts 46°
2026-02-18 16:46 43.96346 87.59911 37268 ft 460 kts 46°
2026-02-18 16:47 44.00230 87.66977 37273 ft 460 kts 46°
2026-02-18 16:47 44.04111 87.74062 37284 ft 460 kts 46°
2026-02-18 16:48 44.07332 87.79954 37286 ft 460 kts 46°
2026-02-18 16:48 44.11203 87.87050 37290 ft 461 kts 46°
2026-02-18 16:49 44.16637 87.98144 37288 ft 471 kts 58°
2026-02-18 16:50 44.18653 88.06944 37287 ft 484 kts 73°
2026-02-18 16:50 44.19991 88.16133 37283 ft 484 kts 72°
2026-02-18 16:51 44.21364 88.25321 37285 ft 484 kts 72°
2026-02-18 16:51 44.22725 88.34497 37293 ft 484 kts 72°
2026-02-18 16:52 44.24077 88.43692 37299 ft 484 kts 72°
2026-02-18 16:52 44.25414 88.52839 37311 ft 484 kts 72°
2026-02-18 16:53 44.27417 88.66650 37335 ft 484 kts 72°
2026-02-18 16:53 44.28743 88.75864 37351 ft 484 kts 72°
2026-02-18 16:54 44.30718 88.89682 37344 ft 484 kts 72°
2026-02-18 16:55 44.32026 88.98906 37359 ft 484 kts 72°
2026-02-18 16:55 44.33318 89.08074 37368 ft 484 kts 72°
2026-02-18 16:56 44.34611 89.17305 37372 ft 484 kts 72°
2026-02-18 16:56 44.35896 89.26538 37376 ft 484 kts 72°
2026-02-18 16:57 44.38447 89.45028 37380 ft 484 kts 72°
2026-02-18 16:58 44.39712 89.54283 37380 ft 484 kts 73°
2026-02-18 16:58 44.40943 89.63549 37375 ft 486 kts 76°
2026-02-18 16:59 44.40824 89.73071 37373 ft 502 kts 95°
2026-02-18 16:59 44.38898 89.82551 37379 ft 508 kts 102°
2026-02-18 17:00 44.35813 89.96712 37380 ft 508 kts 102°
2026-02-18 17:00 44.33751 90.06166 37336 ft 508 kts 102°
2026-02-18 17:01 44.30641 90.20321 37325 ft 507 kts 102°
2026-02-18 17:02 44.28573 90.29682 37313 ft 507 kts 102°
2026-02-18 17:02 44.26488 90.39076 37301 ft 507 kts 102°
2026-02-18 17:03 44.24396 90.48465 37290 ft 506 kts 102°
2026-02-18 17:03 44.22297 90.57841 37279 ft 506 kts 102°
2026-02-18 17:04 44.20193 90.67199 37268 ft 506 kts 102°
2026-02-18 17:04 44.18081 90.76549 37261 ft 506 kts 102°
2026-02-18 17:05 44.14900 90.90562 37261 ft 505 kts 102°
2026-02-18 17:05 44.12771 90.99890 37261 ft 505 kts 102°
2026-02-18 17:06 44.10637 91.09206 37264 ft 505 kts 102°
2026-02-18 17:06 44.08510 91.18452 37268 ft 505 kts 102°
2026-02-18 17:07 44.06367 91.27733 37273 ft 504 kts 102°
2026-02-18 17:07 44.04212 91.37024 37277 ft 505 kts 102°
2026-02-18 17:08 44.02047 91.46304 37286 ft 505 kts 103°
2026-02-18 17:08 43.99854 91.55571 37285 ft 505 kts 103°
2026-02-18 17:09 43.96556 91.69454 37289 ft 505 kts 103°
2026-02-18 17:10 43.94344 91.78724 37292 ft 505 kts 103°
2026-02-18 17:10 43.92137 91.87937 37289 ft 506 kts 103°
2026-02-18 17:11 43.89906 91.97211 37281 ft 507 kts 103°
2026-02-18 17:11 43.87664 92.06494 37283 ft 507 kts 103°
2026-02-18 17:12 43.85415 92.15767 37268 ft 508 kts 103°
2026-02-18 17:12 43.83157 92.25042 37285 ft 508 kts 103°
2026-02-18 17:13 43.79762 92.38906 37295 ft 509 kts 104°
2026-02-18 17:13 43.77479 92.48185 37287 ft 509 kts 104°
2026-02-18 17:14 43.75184 92.57477 37280 ft 509 kts 104°
2026-02-18 17:14 43.72889 92.66728 37295 ft 509 kts 104°
2026-02-18 17:15 43.70584 92.75984 37288 ft 508 kts 104°
2026-02-18 17:15 43.68290 92.85157 37278 ft 508 kts 104°
2026-02-18 17:16 43.65978 92.94365 37278 ft 507 kts 104°
2026-02-18 17:16 43.63688 93.03570 37283 ft 506 kts 104°
2026-02-18 17:17 43.60409 93.17407 37290 ft 505 kts 103°
2026-02-18 17:18 43.58208 93.26605 37293 ft 504 kts 104°
2026-02-18 17:18 43.55993 93.35785 37298 ft 504 kts 104°
2026-02-18 17:19 43.53772 93.44948 37305 ft 503 kts 104°
2026-02-18 17:19 43.51558 93.54051 37314 ft 503 kts 104°
2026-02-18 17:20 43.49327 93.63181 37318 ft 503 kts 104°
2026-02-18 17:20 43.47091 93.72300 37320 ft 502 kts 104°
2026-02-18 17:21 43.43730 93.85933 37318 ft 503 kts 104°
2026-02-18 17:21 43.41473 93.95046 37313 ft 504 kts 104°
2026-02-18 17:22 43.39206 94.04170 37301 ft 504 kts 104°
2026-02-18 17:22 43.36925 94.13300 37280 ft 505 kts 104°
2026-02-18 17:23 43.34638 94.22421 37254 ft 505 kts 104°
2026-02-18 17:23 43.32344 94.31541 37235 ft 505 kts 104°
2026-02-18 17:24 43.30043 94.40647 37222 ft 505 kts 104°
2026-02-18 17:24 43.27738 94.49737 37207 ft 504 kts 104°
2026-02-18 17:25 43.24282 94.63299 37208 ft 503 kts 104°
2026-02-18 17:26 43.21962 94.72357 37232 ft 503 kts 105°
2026-02-18 17:26 43.19637 94.81405 37241 ft 503 kts 105°
2026-02-18 17:27 43.17307 94.90438 37256 ft 503 kts 105°
2026-02-18 17:27 43.14965 94.99478 37275 ft 503 kts 105°
2026-02-18 17:28 43.11928 95.08139 37288 ft 512 kts 123°
2026-02-18 17:28 43.09601 95.11849 37294 ft 516 kts 134°
2026-02-18 17:28 43.06803 95.14954 37315 ft 519 kts 144°
2026-02-18 17:29 42.97609 95.22745 37312 ft 520 kts 146°
2026-02-18 17:29 42.91577 95.28188 37311 ft 521 kts 144°
2026-02-18 17:30 42.85569 95.33751 37323 ft 521 kts 144°
2026-02-18 17:30 42.79570 95.39308 37347 ft 521 kts 144°
2026-02-18 17:31 42.73568 95.44845 37361 ft 521 kts 144°
2026-02-18 17:31 42.67560 95.50373 37365 ft 521 kts 144°
2026-02-18 17:32 42.61578 95.55864 37377 ft 521 kts 144°
2026-02-18 17:32 42.55567 95.61367 37370 ft 521 kts 145°
2026-02-18 17:33 42.46555 95.69595 37372 ft 520 kts 145°
2026-02-18 17:34 42.40555 95.75058 37381 ft 519 kts 145°
2026-02-18 17:34 42.34573 95.80541 37387 ft 519 kts 144°
2026-02-18 17:35 42.28628 95.86076 37376 ft 519 kts 144°
2026-02-18 17:35 42.23689 95.90656 37370 ft 518 kts 144°
2026-02-18 17:36 42.17737 95.96152 37359 ft 518 kts 144°
2026-02-18 17:36 42.10818 96.02522 37377 ft 518 kts 144°
2026-02-18 17:37 42.02894 96.09795 37374 ft 518 kts 145°
2026-02-18 17:37 41.96936 96.15248 37384 ft 517 kts 145°
2026-02-18 17:38 41.91233 96.21110 37365 ft 515 kts 132°
2026-02-18 17:38 41.88986 96.24833 37359 ft 511 kts 120°
2026-02-18 17:38 41.87303 96.28999 37361 ft 506 kts 109°
2026-02-18 17:39 41.86235 96.33461 37360 ft 500 kts 97°
2026-02-18 17:39 41.85815 96.38055 37360 ft 493 kts 86°
2026-02-18 17:39 41.86048 96.42597 37358 ft 486 kts 75°
2026-02-18 17:39 41.86667 96.47058 37356 ft 485 kts 74°
2026-02-18 17:40 41.87531 96.56037 37355 ft 490 kts 81°
2026-02-18 17:40 41.87807 96.65197 37358 ft 493 kts 84°
2026-02-18 17:41 41.87972 96.79012 37363 ft 493 kts 84°
2026-02-18 17:42 41.88079 96.88216 37364 ft 494 kts 84°
2026-02-18 17:42 41.88184 96.97439 37363 ft 494 kts 84°
2026-02-18 17:43 41.88284 97.06672 37363 ft 495 kts 84°
2026-02-18 17:43 41.88375 97.15856 37363 ft 495 kts 84°
2026-02-18 17:44 41.88459 97.25094 37365 ft 496 kts 85°
2026-02-18 17:44 41.88536 97.34359 37371 ft 496 kts 85°
2026-02-18 17:45 41.88638 97.48248 37372 ft 496 kts 85°
2026-02-18 17:45 41.88697 97.57514 37375 ft 496 kts 85°
2026-02-18 17:46 41.88748 97.66730 37381 ft 496 kts 85°
2026-02-18 17:46 41.88792 97.76003 37383 ft 496 kts 85°
2026-02-18 17:47 41.88829 97.85289 37391 ft 497 kts 85°
2026-02-18 17:47 41.88858 97.94573 37392 ft 497 kts 85°
2026-02-18 17:48 41.88880 98.03765 37395 ft 498 kts 85°
2026-02-18 17:48 41.88896 98.13098 37394 ft 498 kts 85°
2026-02-18 17:49 41.88904 98.27065 37389 ft 499 kts 85°
2026-02-18 17:50 41.88900 98.36374 37385 ft 499 kts 85°
2026-02-18 17:50 41.88889 98.45511 37385 ft 500 kts 85°
2026-02-18 17:51 41.88870 98.54842 37386 ft 500 kts 85°
2026-02-18 17:51 41.88843 98.64174 37380 ft 500 kts 86°
2026-02-18 17:52 41.88810 98.73463 37379 ft 500 kts 86°
2026-02-18 17:52 41.88769 98.82797 37383 ft 500 kts 86°
2026-02-18 17:53 41.88692 98.96788 37383 ft 500 kts 86°
2026-02-18 17:53 41.88632 99.06144 37386 ft 500 kts 86°
2026-02-18 17:54 41.88564 99.15479 37378 ft 500 kts 86°
2026-02-18 17:54 41.88489 99.24822 37378 ft 500 kts 86°
2026-02-18 17:55 41.88406 99.34171 37372 ft 501 kts 86°
2026-02-18 17:55 41.88315 99.43509 37371 ft 501 kts 86°
2026-02-18 17:56 41.88217 99.52863 37359 ft 501 kts 86°
2026-02-18 17:56 41.88112 99.62225 37372 ft 502 kts 86°
2026-02-18 17:57 41.87939 99.76265 37373 ft 502 kts 87°
2026-02-18 17:58 41.87813 99.85639 37363 ft 502 kts 87°
2026-02-18 17:58 41.87681 99.94968 37365 ft 503 kts 87°
2026-02-18 17:59 41.87540 100.04367 37362 ft 503 kts 87°
2026-02-18 17:59 41.87392 100.13755 37366 ft 503 kts 87°
2026-02-18 18:00 41.87236 100.23154 37365 ft 503 kts 88°
2026-02-18 18:00 41.87074 100.32485 37372 ft 503 kts 88°
2026-02-18 18:01 41.86814 100.46575 37363 ft 503 kts 88°
2026-02-18 18:01 41.86632 100.55954 37369 ft 503 kts 88°
2026-02-18 18:02 41.86441 100.65348 37364 ft 503 kts 88°
2026-02-18 18:02 41.86243 100.74744 37364 ft 504 kts 88°
2026-02-18 18:03 41.86038 100.84139 37365 ft 504 kts 88°
2026-02-18 18:03 41.85825 100.93496 37363 ft 504 kts 88°
2026-02-18 18:04 41.85604 101.02912 37359 ft 505 kts 89°
2026-02-18 18:04 41.85379 101.12338 37357 ft 506 kts 89°
2026-02-18 18:05 41.84027 101.26408 37367 ft 512 kts 104°
2026-02-18 18:06 41.81604 101.35427 37365 ft 514 kts 109°
2026-02-18 18:06 41.79132 101.44437 37374 ft 515 kts 108°
2026-02-18 18:07 41.76661 101.53453 37382 ft 515 kts 109°
2026-02-18 18:07 41.74190 101.62414 37380 ft 516 kts 109°
2026-02-18 18:08 41.71693 101.71426 37384 ft 516 kts 109°
2026-02-18 18:08 41.69189 101.80434 37387 ft 516 kts 109°
2026-02-18 18:09 41.65427 101.93907 37388 ft 515 kts 109°
2026-02-18 18:09 41.62913 102.02868 37391 ft 515 kts 109°
2026-02-18 18:10 41.60393 102.11820 37383 ft 514 kts 109°
2026-02-18 18:10 41.57883 102.20705 37383 ft 514 kts 109°
2026-02-18 18:11 41.55351 102.29638 37379 ft 514 kts 109°
2026-02-18 18:11 41.52814 102.38558 37364 ft 514 kts 109°
2026-02-18 18:12 41.50270 102.47471 37367 ft 514 kts 110°
2026-02-18 18:12 41.47717 102.56379 37373 ft 514 kts 110°
2026-02-18 18:13 41.43892 102.69676 37348 ft 514 kts 110°
2026-02-18 18:14 41.41329 102.78595 37351 ft 515 kts 109°
2026-02-18 18:14 41.38770 102.87496 37362 ft 515 kts 109°
2026-02-18 18:15 41.36200 102.96400 37373 ft 515 kts 109°
2026-02-18 18:15 41.33667 103.05322 37353 ft 515 kts 109°
2026-02-18 18:16 41.31215 103.14286 37355 ft 515 kts 108°
2026-02-18 18:16 41.28746 103.23237 37362 ft 515 kts 109°
2026-02-18 18:17 41.25031 103.36575 37361 ft 515 kts 109°
2026-02-18 18:18 41.21284 103.49951 37363 ft 515 kts 109°
2026-02-18 18:18 41.18780 103.58852 37368 ft 514 kts 109°
2026-02-18 18:19 41.16265 103.67760 37367 ft 514 kts 109°
2026-02-18 18:19 41.13749 103.76640 37372 ft 514 kts 109°
2026-02-18 18:20 41.11224 103.85525 37374 ft 514 kts 109°
2026-02-18 18:20 41.08712 103.94328 37371 ft 514 kts 109°
2026-02-18 18:21 41.04904 104.07619 37371 ft 514 kts 109°
2026-02-18 18:21 41.02356 104.16478 37374 ft 514 kts 109°
2026-02-18 18:22 41.00235 104.23826 37378 ft 515 kts 109°
2026-02-18 18:22 40.97674 104.32681 37377 ft 514 kts 109°
2026-02-18 18:23 40.95466 104.41682 37375 ft 514 kts 105°
2026-02-18 18:23 40.93377 104.50730 37383 ft 514 kts 105°
2026-02-18 18:24 40.91223 104.59748 37389 ft 514 kts 106°
2026-02-18 18:24 40.89041 104.68743 37388 ft 514 kts 106°
2026-02-18 18:25 40.85769 104.82156 37399 ft 513 kts 106°
2026-02-18 18:26 40.83569 104.91133 37407 ft 512 kts 106°
2026-02-18 18:26 40.81364 105.00097 37421 ft 512 kts 106°
2026-02-18 18:27 40.79157 105.09038 37428 ft 512 kts 106°
2026-02-18 18:27 40.76960 105.17903 37428 ft 512 kts 106°
2026-02-18 18:28 40.74741 105.26822 37430 ft 512 kts 106°
2026-02-18 18:28 40.72514 105.35743 37431 ft 512 kts 106°
2026-02-18 18:29 40.69163 105.49097 37431 ft 511 kts 107°
2026-02-18 18:29 40.66921 105.57993 37423 ft 511 kts 107°
2026-02-18 18:30 40.64673 105.66878 37422 ft 511 kts 107°
2026-02-18 18:30 40.62433 105.75701 37415 ft 510 kts 107°
2026-02-18 18:31 40.60177 105.84553 37411 ft 510 kts 107°
2026-02-18 18:31 40.57917 105.93390 37411 ft 510 kts 107°
2026-02-18 18:32 40.55645 106.02241 37407 ft 510 kts 107°
2026-02-18 18:32 40.53372 106.11062 37402 ft 509 kts 107°
2026-02-18 18:33 40.49946 106.24298 37402 ft 509 kts 107°
2026-02-18 18:34 40.47658 106.33099 37399 ft 509 kts 107°
2026-02-18 18:34 40.45375 106.41846 37398 ft 509 kts 107°
2026-02-18 18:35 40.43075 106.50631 37399 ft 509 kts 107°
2026-02-18 18:35 40.40766 106.59416 37401 ft 509 kts 107°
2026-02-18 18:36 40.38450 106.68198 37403 ft 509 kts 107°
2026-02-18 18:36 40.36130 106.76967 37401 ft 509 kts 108°
2026-02-18 18:37 40.32639 106.90115 37393 ft 508 kts 107°
2026-02-18 18:37 40.31793 106.94605 37381 ft 506 kts 96°
2026-02-18 18:37 40.31525 106.99182 37384 ft 502 kts 86°
2026-02-18 18:38 40.32385 107.08145 37376 ft 498 kts 77°
2026-02-18 18:39 40.34072 107.21605 37375 ft 499 kts 78°
2026-02-18 18:39 40.35171 107.30609 37368 ft 499 kts 78°
2026-02-18 18:40 40.36262 107.39607 37370 ft 499 kts 78°
2026-02-18 18:40 40.37346 107.48595 37368 ft 499 kts 78°
2026-02-18 18:41 40.38959 107.62091 37372 ft 499 kts 78°
2026-02-18 18:41 40.40026 107.71097 37374 ft 499 kts 78°
2026-02-18 18:42 40.41079 107.80045 37374 ft 499 kts 78°
2026-02-18 18:42 40.42133 107.89055 37377 ft 499 kts 78°
2026-02-18 18:43 40.43180 107.98071 37376 ft 499 kts 78°
2026-02-18 18:43 40.44221 108.07081 37378 ft 499 kts 78°
2026-02-18 18:44 40.45260 108.16097 37380 ft 499 kts 79°
2026-02-18 18:44 40.46291 108.25112 37386 ft 499 kts 79°
2026-02-18 18:45 40.47816 108.38584 37370 ft 499 kts 79°
2026-02-18 18:46 40.48829 108.47613 37397 ft 499 kts 79°
2026-02-18 18:46 40.49834 108.56638 37403 ft 499 kts 79°
2026-02-18 18:47 40.50833 108.65664 37398 ft 499 kts 79°
2026-02-18 18:47 40.51824 108.74691 37401 ft 499 kts 79°
2026-02-18 18:48 40.52150 108.77674 37383 ft 499 kts 79°
2026-02-18 18:48 40.52889 108.84467 37397 ft 498 kts 79°
2026-02-18 18:49 40.54351 108.98011 37385 ft 498 kts 79°
2026-02-18 18:49 40.55317 109.07052 37371 ft 498 kts 79°
2026-02-18 18:50 40.56277 109.16095 37377 ft 498 kts 79°
2026-02-18 18:50 40.57227 109.25120 37368 ft 498 kts 79°
2026-02-18 18:51 40.58165 109.34094 37355 ft 498 kts 80°
2026-02-18 18:51 40.59101 109.43130 37355 ft 498 kts 80°
2026-02-18 18:52 40.60030 109.52162 37355 ft 498 kts 80°
2026-02-18 18:52 40.60954 109.61210 37356 ft 498 kts 80°
2026-02-18 18:53 40.62324 109.74767 37565 ft 494 kts 80°
2026-02-18 18:53 40.62765 109.79183 37818 ft 491 kts 80°
2026-02-18 18:54 40.63212 109.83660 37944 ft 492 kts 80°
2026-02-18 18:54 40.63656 109.88125 38061 ft 493 kts 80°
2026-02-18 18:54 40.64100 109.92600 38180 ft 493 kts 80°
2026-02-18 18:55 40.64675 110.01649 38386 ft 497 kts 88°
2026-02-18 18:55 40.64601 110.10723 38584 ft 499 kts 88°
2026-02-18 18:55 40.64579 110.15353 38695 ft 500 kts 88°
2026-02-18 18:56 40.64559 110.19939 38798 ft 501 kts 88°
2026-02-18 18:56 40.64536 110.24467 38901 ft 502 kts 88°
2026-02-18 18:56 40.64509 110.29065 38995 ft 502 kts 88°
2026-02-18 18:57 40.64413 110.42836 39276 ft 503 kts 88°
2026-02-18 18:57 40.64341 110.52109 39274 ft 507 kts 88°
2026-02-18 18:58 40.64261 110.61426 39262 ft 509 kts 89°
2026-02-18 18:58 40.64173 110.70763 39252 ft 511 kts 89°
2026-02-18 18:59 40.64077 110.80136 39251 ft 512 kts 89°
2026-02-18 18:59 40.63974 110.89517 39247 ft 513 kts 89°
2026-02-18 19:00 40.63863 110.98918 39244 ft 513 kts 89°
2026-02-18 19:00 40.63746 111.08238 39240 ft 513 kts 89°
2026-02-18 19:01 40.63554 111.22307 39243 ft 513 kts 89°
2026-02-18 19:02 40.63417 111.31718 39248 ft 512 kts 89°
2026-02-18 19:02 40.63272 111.41097 39246 ft 512 kts 89°
2026-02-18 19:03 40.63120 111.50476 39243 ft 512 kts 89°
2026-02-18 19:03 40.62961 111.59862 39238 ft 512 kts 89°
2026-02-18 19:04 40.62795 111.69174 39233 ft 512 kts 89°
2026-02-18 19:04 40.62621 111.78547 39221 ft 512 kts 89°
2026-02-18 19:05 40.62348 111.92589 39218 ft 511 kts 89°
2026-02-18 19:05 40.62156 112.01956 39219 ft 512 kts 90°
2026-02-18 19:06 40.61945 112.11310 39213 ft 511 kts 90°
2026-02-18 19:06 40.61737 112.20632 39211 ft 512 kts 90°
2026-02-18 19:07 40.61522 112.30000 39205 ft 511 kts 90°
2026-02-18 19:07 40.61299 112.39346 39204 ft 511 kts 90°
2026-02-18 19:08 40.61108 112.47127 39197 ft 511 kts 90°
2026-02-18 19:08 40.60731 112.56457 39195 ft 511 kts 93°
2026-02-18 19:09 40.59855 112.70465 39198 ft 511 kts 93°
2026-02-18 19:10 40.59193 112.79781 39204 ft 511 kts 95°
2026-02-18 19:10 40.58461 112.89026 39210 ft 511 kts 94°
2026-02-18 19:11 40.57859 112.98334 39227 ft 511 kts 93°
2026-02-18 19:11 40.57247 113.07646 39243 ft 511 kts 94°
2026-02-18 19:12 40.56616 113.16952 39255 ft 510 kts 94°
2026-02-18 19:12 40.55977 113.26246 39261 ft 510 kts 94°
2026-02-18 19:13 40.55003 113.40201 39256 ft 510 kts 94°
2026-02-18 19:13 40.54350 113.49436 39260 ft 510 kts 94°
2026-02-18 19:14 40.53684 113.58726 39259 ft 510 kts 94°
2026-02-18 19:14 40.53012 113.68022 39255 ft 510 kts 94°
2026-02-18 19:15 40.52336 113.77236 39259 ft 510 kts 94°
2026-02-18 19:15 40.51650 113.86497 39274 ft 509 kts 94°
2026-02-18 19:16 40.50957 113.95767 39282 ft 509 kts 94°
2026-02-18 19:16 40.50351 114.05043 39280 ft 508 kts 91°
2026-02-18 19:17 40.49851 114.18965 39293 ft 508 kts 91°
2026-02-18 19:18 40.49468 114.28242 39304 ft 509 kts 92°
2026-02-18 19:18 40.49061 114.37469 39302 ft 509 kts 92°
2026-02-18 19:19 40.48643 114.46760 39303 ft 509 kts 92°
2026-02-18 19:19 40.48219 114.56037 39302 ft 509 kts 92°
2026-02-18 19:20 40.47787 114.65323 39300 ft 509 kts 92°
2026-02-18 19:20 40.47348 114.74614 39298 ft 509 kts 92°
2026-02-18 19:21 40.46675 114.88530 39291 ft 509 kts 92°
2026-02-18 19:21 40.46220 114.97752 39282 ft 509 kts 92°
2026-02-18 19:22 40.45756 115.07022 39276 ft 509 kts 92°
2026-02-18 19:22 40.45283 115.16303 39267 ft 509 kts 92°
2026-02-18 19:23 40.44803 115.25564 39260 ft 508 kts 92°
2026-02-18 19:23 40.44316 115.34844 39252 ft 508 kts 92°
2026-02-18 19:24 40.43822 115.44098 39245 ft 508 kts 92°
2026-02-18 19:24 40.43324 115.53326 39242 ft 509 kts 92°
2026-02-18 19:25 40.42239 115.67198 39236 ft 509 kts 95°
2026-02-18 19:26 40.41457 115.76450 39231 ft 509 kts 95°
2026-02-18 19:26 40.40695 115.85688 39228 ft 509 kts 95°
2026-02-18 19:27 40.39932 115.94918 39226 ft 509 kts 95°
2026-02-18 19:27 40.39165 116.04099 39229 ft 509 kts 95°
2026-02-18 19:28 40.38384 116.13347 39222 ft 509 kts 95°
2026-02-18 19:28 40.37597 116.22577 39220 ft 509 kts 95°
2026-02-18 19:29 40.36405 116.36418 39214 ft 509 kts 95°
2026-02-18 19:29 40.35601 116.45628 39212 ft 509 kts 95°
2026-02-18 19:30 40.34787 116.54878 39208 ft 509 kts 96°
2026-02-18 19:30 40.34007 116.64105 39200 ft 508 kts 91°
2026-02-18 19:31 40.34813 116.73160 39203 ft 503 kts 70°
2026-02-18 19:31 40.37876 116.81283 39203 ft 495 kts 50°
2026-02-18 19:32 40.42473 116.87918 39207 ft 491 kts 43°
2026-02-18 19:32 40.47204 116.94423 39209 ft 492 kts 43°
2026-02-18 19:33 40.54264 117.04232 39210 ft 492 kts 43°
2026-02-18 19:34 40.58963 117.10779 39213 ft 492 kts 43°
2026-02-18 19:34 40.63663 117.17338 39215 ft 492 kts 43°
2026-02-18 19:35 40.68391 117.23767 39217 ft 489 kts 38°
2026-02-18 19:35 40.73882 117.28968 39214 ft 483 kts 26°
2026-02-18 19:36 40.79984 117.32533 39209 ft 478 kts 17°
2026-02-18 19:36 40.86203 117.35683 39211 ft 479 kts 18°
2026-02-18 19:37 40.95522 117.40451 39214 ft 479 kts 18°
2026-02-18 19:37 41.01468 117.44468 39209 ft 485 kts 33°
2026-02-18 19:38 41.06265 117.50818 39209 ft 493 kts 51°
2026-02-18 19:38 41.09905 117.58510 39212 ft 495 kts 55°
2026-02-18 19:39 41.13548 117.66263 39217 ft 495 kts 55°
2026-02-18 19:39 41.17193 117.74032 39224 ft 495 kts 55°
2026-02-18 19:40 41.20828 117.81808 39228 ft 495 kts 55°
2026-02-18 19:40 41.24450 117.89579 39224 ft 495 kts 55°
2026-02-18 19:41 41.29881 118.01270 39236 ft 495 kts 56°
2026-02-18 19:42 41.33491 118.09066 39212 ft 495 kts 56°
2026-02-18 19:42 41.37096 118.16871 39195 ft 495 kts 56°
2026-02-18 19:43 41.40696 118.24686 39194 ft 494 kts 56°
2026-02-18 19:43 41.44289 118.32504 39173 ft 495 kts 56°
2026-02-18 19:44 41.47851 118.40277 39166 ft 495 kts 56°
2026-02-18 19:44 41.51711 118.47840 39153 ft 491 kts 48°
2026-02-18 19:45 41.58026 118.58638 39136 ft 492 kts 49°
2026-02-18 19:45 41.62222 118.65862 39124 ft 493 kts 49°
2026-02-18 19:46 41.66426 118.73114 39122 ft 493 kts 49°
2026-02-18 19:46 41.70630 118.80386 39118 ft 494 kts 49°
2026-02-18 19:47 41.74835 118.87678 39114 ft 494 kts 49°
2026-02-18 19:47 41.79007 118.94932 39112 ft 494 kts 49°
2026-02-18 19:48 41.83198 119.02236 39119 ft 495 kts 49°
2026-02-18 19:48 41.87399 119.09576 39127 ft 495 kts 49°
2026-02-18 19:49 41.93695 119.20605 39132 ft 496 kts 49°
2026-02-18 19:50 41.97891 119.27981 39125 ft 497 kts 49°
2026-02-18 19:50 42.02087 119.35375 39137 ft 497 kts 49°
2026-02-18 19:51 42.06276 119.42772 39142 ft 497 kts 49°
2026-02-18 19:51 42.10435 119.50136 39137 ft 497 kts 49°
2026-02-18 19:52 42.14616 119.57558 39121 ft 497 kts 49°
2026-02-18 19:52 42.18791 119.64989 39112 ft 497 kts 49°
2026-02-18 19:53 42.25049 119.76156 39103 ft 496 kts 49°
2026-02-18 19:53 42.29212 119.83610 39095 ft 496 kts 49°
2026-02-18 19:54 42.32664 119.89806 39091 ft 496 kts 49°
2026-02-18 19:54 42.36809 119.97262 39081 ft 496 kts 49°
2026-02-18 19:55 42.40947 120.04724 39074 ft 495 kts 49°
2026-02-18 19:55 42.45077 120.12188 39065 ft 495 kts 49°
2026-02-18 19:56 42.49179 120.19620 39060 ft 494 kts 49°
2026-02-18 19:56 42.53291 120.27090 39049 ft 493 kts 49°
2026-02-18 19:57 42.59440 120.38294 39048 ft 493 kts 49°
2026-02-18 19:58 42.63526 120.45762 39046 ft 492 kts 48°
2026-02-18 19:58 42.67600 120.53228 39049 ft 491 kts 48°
2026-02-18 19:59 42.71637 120.60644 39049 ft 491 kts 48°
2026-02-18 19:59 42.75701 120.68128 39043 ft 490 kts 48°
2026-02-18 20:00 42.81773 120.79344 39042 ft 490 kts 48°
2026-02-18 20:00 42.85809 120.86824 39033 ft 490 kts 48°
2026-02-18 20:01 42.91853 120.98059 39030 ft 490 kts 48°
2026-02-18 20:02 42.95852 121.05518 39030 ft 490 kts 48°
2026-02-18 20:02 42.99871 121.13031 39028 ft 490 kts 48°
2026-02-18 20:03 43.03883 121.20551 39026 ft 489 kts 49°
2026-02-18 20:03 43.07892 121.28084 39025 ft 489 kts 49°
2026-02-18 20:04 43.11899 121.35632 39023 ft 490 kts 49°
2026-02-18 20:04 43.15876 121.43144 39020 ft 490 kts 49°
2026-02-18 20:05 43.23878 121.58314 39012 ft 491 kts 49°
2026-02-18 20:06 43.27871 121.65913 39015 ft 491 kts 49°
2026-02-18 20:06 43.31836 121.73477 39011 ft 492 kts 49°
2026-02-18 20:07 43.35831 121.81119 39014 ft 492 kts 49°
2026-02-18 20:07 43.39818 121.88767 39008 ft 493 kts 49°
2026-02-18 20:08 43.43814 121.96452 39015 ft 493 kts 49°
2026-02-18 20:08 43.47808 122.04152 39014 ft 493 kts 49°
2026-02-18 20:09 43.53603 122.15886 39019 ft 499 kts 58°
2026-02-18 20:09 43.55975 122.24877 39011 ft 509 kts 74°
2026-02-18 20:10 43.56739 122.34643 39013 ft 513 kts 82°
2026-02-18 20:10 43.57309 122.44465 39015 ft 513 kts 82°
2026-02-18 20:11 43.57883 122.54283 39015 ft 514 kts 82°
2026-02-18 20:11 43.58443 122.64111 39023 ft 514 kts 82°
2026-02-18 20:12 43.58991 122.73936 39027 ft 514 kts 82°
2026-02-18 20:12 43.59532 122.83778 39025 ft 514 kts 82°
2026-02-18 20:13 43.60324 122.98485 39032 ft 515 kts 82°
2026-02-18 20:14 43.60845 123.08350 39033 ft 515 kts 82°
2026-02-18 20:14 43.61357 123.18209 39020 ft 515 kts 82°
2026-02-18 20:15 43.61936 123.28071 39022 ft 515 kts 81°
2026-02-18 20:15 43.62600 123.37922 39032 ft 515 kts 81°
2026-02-18 20:16 43.63239 123.47765 39028 ft 515 kts 81°
2026-02-18 20:16 43.63855 123.57573 39034 ft 515 kts 81°
2026-02-18 20:17 43.64766 123.72375 39027 ft 516 kts 82°
2026-02-18 20:17 43.65363 123.82244 39027 ft 516 kts 82°
2026-02-18 20:18 43.65952 123.92124 39027 ft 516 kts 82°
2026-02-18 20:18 43.66532 124.02007 39028 ft 516 kts 82°
2026-02-18 20:19 43.67102 124.11851 39027 ft 517 kts 82°
2026-02-18 20:19 43.67666 124.21740 39028 ft 517 kts 82°
2026-02-18 20:20 43.68226 124.31673 39026 ft 517 kts 82°
2026-02-18 20:20 43.68868 124.41565 39029 ft 517 kts 81°
2026-02-18 20:21 43.69846 124.56361 39028 ft 517 kts 81°
2026-02-18 20:22 43.70476 124.66274 39028 ft 518 kts 81°
2026-02-18 20:22 43.71096 124.76187 39027 ft 518 kts 81°
2026-02-18 20:23 43.71708 124.86117 39023 ft 518 kts 81°
2026-02-18 20:23 43.72310 124.96038 39025 ft 518 kts 81°
2026-02-18 20:24 43.72902 125.05924 39030 ft 518 kts 81°
2026-02-18 20:24 43.73488 125.15849 39031 ft 518 kts 81°
2026-02-18 20:25 43.74351 125.30744 39032 ft 518 kts 82°
2026-02-18 20:25 43.74916 125.40678 39032 ft 518 kts 82°
2026-02-18 20:26 43.75471 125.50607 39030 ft 518 kts 82°
2026-02-18 20:26 43.76018 125.60539 39029 ft 518 kts 82°
2026-02-18 20:27 43.76556 125.70471 39031 ft 518 kts 82°
2026-02-18 20:27 43.77069 125.80414 39032 ft 518 kts 84°
2026-02-18 20:28 43.76759 125.90430 39032 ft 523 kts 95°
2026-02-18 20:28 43.75622 126.00391 39039 ft 524 kts 95°
2026-02-18 20:29 43.74178 126.15314 39049 ft 524 kts 95°
2026-02-18 20:30 43.73192 126.25303 39057 ft 524 kts 95°
2026-02-18 20:30 43.72183 126.35293 39062 ft 524 kts 95°
2026-02-18 20:31 43.71162 126.45296 39066 ft 524 kts 95°
2026-02-18 20:31 43.70133 126.55285 39078 ft 524 kts 95°
2026-02-18 20:32 43.69101 126.65202 39088 ft 524 kts 95°
2026-02-18 20:32 43.68057 126.75171 39096 ft 524 kts 95°
2026-02-18 20:33 43.66475 126.90109 39113 ft 524 kts 96°
2026-02-18 20:33 43.65408 127.00087 39117 ft 524 kts 96°
2026-02-18 20:34 43.64333 127.10041 39134 ft 524 kts 96°
2026-02-18 20:34 43.63254 127.19944 39140 ft 524 kts 96°
2026-02-18 20:35 43.62160 127.29907 39146 ft 524 kts 96°
2026-02-18 20:35 43.60938 127.39837 39154 ft 524 kts 97°
2026-02-18 20:36 43.59674 127.49739 39163 ft 524 kts 97°
2026-02-18 20:36 43.58424 127.59595 39168 ft 524 kts 97°
2026-02-18 20:37 43.56533 127.74451 39179 ft 524 kts 97°
2026-02-18 20:38 43.55262 127.84353 39178 ft 524 kts 97°
2026-02-18 20:38 43.53985 127.94251 39184 ft 524 kts 97°
2026-02-18 20:39 43.52697 128.04160 39180 ft 525 kts 97°
2026-02-18 20:39 43.51397 128.14087 39188 ft 526 kts 97°
2026-02-18 20:40 43.50090 128.23995 39188 ft 526 kts 98°
2026-02-18 20:40 43.48791 128.33909 39198 ft 526 kts 97°
2026-02-18 20:41 43.46928 128.48749 39203 ft 526 kts 97°
2026-02-18 20:41 43.45664 128.58674 39209 ft 526 kts 97°
2026-02-18 20:42 43.44388 128.68580 39206 ft 525 kts 97°
2026-02-18 20:42 43.43105 128.78471 39210 ft 525 kts 97°
2026-02-18 20:43 43.42031 128.86695 39213 ft 525 kts 98°
2026-02-18 20:43 43.40730 128.96596 39213 ft 525 kts 98°
2026-02-18 20:44 43.39421 129.06491 39212 ft 525 kts 98°
2026-02-18 20:44 43.38084 129.16319 39218 ft 526 kts 98°
2026-02-18 20:45 43.36022 129.31159 39218 ft 526 kts 98°
2026-02-18 20:46 43.34652 129.40968 39220 ft 526 kts 98°
2026-02-18 20:46 43.33264 129.50850 39225 ft 526 kts 98°
2026-02-18 20:47 43.31870 129.60719 39228 ft 526 kts 98°
2026-02-18 20:47 43.30467 129.70585 39232 ft 527 kts 99°
2026-02-18 20:48 43.29254 129.80476 39226 ft 524 kts 92°
2026-02-18 20:48 43.28890 129.90446 39226 ft 524 kts 89°
2026-02-18 20:49 43.28331 130.05449 39224 ft 524 kts 90°
2026-02-18 20:49 43.27941 130.15370 39224 ft 525 kts 90°
2026-02-18 20:50 43.27541 130.25381 39224 ft 525 kts 90°
2026-02-18 20:50 43.27132 130.35385 39225 ft 525 kts 90°
2026-02-18 20:51 43.26714 130.45398 39226 ft 526 kts 90°
2026-02-18 20:51 43.26287 130.55420 39235 ft 526 kts 90°
2026-02-18 20:52 43.25851 130.65432 39238 ft 526 kts 90°
2026-02-18 20:52 43.25408 130.75449 39237 ft 526 kts 90°
2026-02-18 20:53 43.24725 130.90452 39238 ft 525 kts 90°
2026-02-18 20:54 43.24259 131.00452 39240 ft 525 kts 91°
2026-02-18 20:54 43.23783 131.10462 39239 ft 525 kts 91°
2026-02-18 20:55 43.23302 131.20450 39243 ft 525 kts 91°
2026-02-18 20:55 43.22637 131.30431 39244 ft 526 kts 93°
2026-02-18 20:56 43.21881 131.40419 39248 ft 526 kts 93°
2026-02-18 20:56 43.21199 131.50357 39248 ft 525 kts 91°
2026-02-18 20:57 43.20494 131.65346 39244 ft 525 kts 91°
2026-02-18 20:57 43.19992 131.75337 39241 ft 526 kts 91°
2026-02-18 20:58 43.19464 131.85349 39237 ft 526 kts 91°
2026-02-18 20:58 43.18904 131.95349 39238 ft 526 kts 92°
2026-02-18 20:59 43.18251 132.05337 39235 ft 526 kts 92°
2026-02-18 20:59 43.17595 132.15325 39231 ft 527 kts 92°
2026-02-18 21:00 43.16938 132.25323 39229 ft 527 kts 92°
2026-02-18 21:00 43.16275 132.35330 39226 ft 527 kts 92°
2026-02-18 21:01 43.15260 132.50312 39226 ft 528 kts 93°
2026-02-18 21:02 43.14541 132.60359 39228 ft 529 kts 93°
2026-02-18 21:02 43.13823 132.70347 39225 ft 529 kts 93°
2026-02-18 21:03 43.13094 132.80395 39228 ft 530 kts 93°
2026-02-18 21:03 43.12356 132.90427 39227 ft 530 kts 93°
2026-02-18 21:04 43.11608 133.00475 39229 ft 529 kts 93°
2026-02-18 21:04 43.10857 133.10423 39219 ft 529 kts 93°
2026-02-18 21:05 43.09710 133.25435 39221 ft 529 kts 94°
2026-02-18 21:05 43.08933 133.35463 39222 ft 529 kts 94°
2026-02-18 21:06 43.08148 133.45471 39218 ft 528 kts 94°
2026-02-18 21:06 43.07356 133.55455 39214 ft 527 kts 94°
2026-02-18 21:07 43.06557 133.65421 39211 ft 527 kts 94°
2026-02-18 21:07 43.05753 133.75330 39204 ft 526 kts 94°
2026-02-18 21:08 43.04938 133.85259 39200 ft 525 kts 94°
2026-02-18 21:08 43.04118 133.95158 39200 ft 524 kts 95°
2026-02-18 21:09 43.02877 134.09929 39195 ft 522 kts 95°
2026-02-18 21:10 43.02039 134.19778 39192 ft 521 kts 95°
2026-02-18 21:10 43.01192 134.29633 39190 ft 521 kts 95°
2026-02-18 21:11 43.00338 134.39458 39186 ft 521 kts 95°
2026-02-18 21:11 42.99476 134.49283 39179 ft 521 kts 95°
2026-02-18 21:12 42.98700 134.59117 39178 ft 520 kts 90°
2026-02-18 21:12 42.98999 134.68945 39178 ft 518 kts 82°
2026-02-18 21:13 42.99796 134.83618 39173 ft 519 kts 83°
2026-02-18 21:14 43.00580 134.98427 39178 ft 522 kts 83°
2026-02-18 21:14 43.01092 135.08334 39173 ft 523 kts 83°
2026-02-18 21:15 43.01593 135.18266 39171 ft 524 kts 83°
2026-02-18 21:15 43.02085 135.28221 39171 ft 525 kts 83°
2026-02-18 21:16 43.02568 135.38188 39173 ft 526 kts 83°
2026-02-18 21:16 43.03042 135.48128 39174 ft 526 kts 83°
2026-02-18 21:17 43.03739 135.63091 39176 ft 526 kts 83°
2026-02-18 21:17 43.04193 135.73064 39176 ft 525 kts 83°
2026-02-18 21:18 43.04638 135.83043 39173 ft 524 kts 83°
2026-02-18 21:18 43.05073 135.92987 39171 ft 523 kts 83°
2026-02-18 21:19 43.05497 136.02855 39166 ft 522 kts 84°
2026-02-18 21:19 43.05912 136.12749 39161 ft 521 kts 84°
2026-02-18 21:20 43.06319 136.22637 39154 ft 520 kts 84°
2026-02-18 21:20 43.06717 136.32512 39153 ft 519 kts 84°
2026-02-18 21:21 43.07297 136.47308 39141 ft 519 kts 84°
2026-02-18 21:22 43.07674 136.57179 39136 ft 519 kts 84°
2026-02-18 21:22 43.08039 136.66967 39129 ft 519 kts 84°
2026-02-18 21:23 43.08398 136.76823 39127 ft 519 kts 84°
2026-02-18 21:23 43.08749 136.86706 39122 ft 519 kts 84°
2026-02-18 21:24 43.09093 136.96607 39120 ft 519 kts 84°
2026-02-18 21:24 43.09427 137.06491 39117 ft 520 kts 85°
2026-02-18 21:25 43.09913 137.21320 39113 ft 520 kts 85°
2026-02-18 21:25 43.10224 137.31146 39104 ft 520 kts 85°
2026-02-18 21:26 43.10528 137.41035 39103 ft 520 kts 85°
2026-02-18 21:26 43.10825 137.50936 39100 ft 520 kts 85°
2026-02-18 21:27 43.11113 137.60847 39097 ft 520 kts 85°
2026-02-18 21:27 43.11392 137.70746 39094 ft 521 kts 85°
2026-02-18 21:28 43.11618 137.78987 39087 ft 521 kts 85°
2026-02-18 21:28 43.11924 137.90510 39073 ft 521 kts 86°
2026-02-18 21:29 43.12261 138.03740 39074 ft 522 kts 86°
2026-02-18 21:30 43.12503 138.13669 39069 ft 522 kts 86°
2026-02-18 21:30 43.12738 138.23599 39069 ft 522 kts 86°
2026-02-18 21:31 43.12963 138.33530 39061 ft 523 kts 86°
2026-02-18 21:31 43.13180 138.43446 39062 ft 523 kts 86°
2026-02-18 21:32 43.13389 138.53403 39050 ft 523 kts 86°
2026-02-18 21:32 43.13590 138.63365 39051 ft 523 kts 86°
2026-02-18 21:33 43.13875 138.78350 39040 ft 524 kts 86°
2026-02-18 21:33 43.14053 138.88270 39032 ft 524 kts 87°
2026-02-18 21:34 43.14223 138.98261 39031 ft 525 kts 87°
2026-02-18 21:34 43.14386 139.08268 39023 ft 525 kts 87°
2026-02-18 21:35 43.14539 139.18257 39020 ft 525 kts 87°
2026-02-18 21:35 43.14684 139.28270 39014 ft 525 kts 87°
2026-02-18 21:36 43.14820 139.38266 39011 ft 525 kts 87°
2026-02-18 21:36 43.14947 139.48262 39008 ft 525 kts 87°
2026-02-18 21:37 43.15121 139.63187 38999 ft 524 kts 88°
2026-02-18 21:38 43.15226 139.73191 38995 ft 524 kts 88°
2026-02-18 21:38 43.15322 139.83076 38977 ft 518 kts 88°
2026-02-18 21:38 43.15366 139.88045 38742 ft 511 kts 88°
2026-02-18 21:39 43.15407 139.92908 38111 ft 509 kts 88°
2026-02-18 21:39 43.15445 139.97779 37261 ft 510 kts 87°
2026-02-18 21:39 43.15481 140.02578 36306 ft 511 kts 87°
2026-02-18 21:39 43.15516 140.07520 35396 ft 510 kts 86°
2026-02-18 21:40 43.15548 140.12298 34556 ft 508 kts 86°
2026-02-18 21:40 43.15579 140.17144 33540 ft 508 kts 85°
2026-02-18 21:40 43.15606 140.21958 32633 ft 503 kts 85°
2026-02-18 21:40 43.15630 140.26736 31668 ft 501 kts 85°
2026-02-18 21:41 43.15672 140.36184 30469 ft 489 kts 84°
2026-02-18 21:41 43.15692 140.40841 29876 ft 486 kts 84°
2026-02-18 21:41 43.15711 140.45440 29288 ft 478 kts 84°
2026-02-18 21:42 43.15727 140.49901 28744 ft 470 kts 84°
2026-02-18 21:42 43.15742 140.54409 28195 ft 464 kts 84°
2026-02-18 21:42 43.15754 140.58731 27667 ft 456 kts 83°
2026-02-18 21:42 43.15765 140.63053 27149 ft 450 kts 83°
2026-02-18 21:43 43.15772 140.67313 26624 ft 443 kts 84°
2026-02-18 21:43 43.15775 140.71492 26096 ft 436 kts 83°
2026-02-18 21:43 43.15784 140.75628 25607 ft 430 kts 83°
2026-02-18 21:43 43.15792 140.79704 25102 ft 425 kts 83°
2026-02-18 21:44 43.15797 140.83722 24607 ft 419 kts 83°
2026-02-18 21:44 43.15798 140.87696 24115 ft 414 kts 83°
2026-02-18 21:44 43.15795 140.91610 23621 ft 409 kts 83°
2026-02-18 21:44 43.15777 140.95435 23108 ft 403 kts 83°
2026-02-18 21:45 43.15790 141.03317 22120 ft 433 kts 83°
2026-02-18 21:45 43.15802 141.07508 21593 ft 437 kts 84°
2026-02-18 21:45 43.15796 141.11617 21075 ft 434 kts 84°
2026-02-18 21:46 43.15780 141.15718 20550 ft 427 kts 84°
2026-02-18 21:46 43.15766 141.19729 20038 ft 416 kts 84°
2026-02-18 21:46 43.15754 141.23638 19546 ft 405 kts 84°
2026-02-18 21:46 43.15740 141.27466 19039 ft 396 kts 84°
2026-02-18 21:47 43.15727 141.31194 18569 ft 386 kts 84°
2026-02-18 21:47 43.15718 141.34832 18094 ft 378 kts 84°
2026-02-18 21:47 43.15703 141.38392 17596 ft 368 kts 84°
2026-02-18 21:47 43.15691 141.41860 17140 ft 361 kts 85°
2026-02-18 21:48 43.15684 141.45359 16692 ft 383 kts 85°
2026-02-18 21:48 43.15680 141.49057 16208 ft 391 kts 85°
2026-02-18 21:48 43.15659 141.52774 15710 ft 389 kts 85°
2026-02-18 21:48 43.15632 141.56447 15232 ft 381 kts 85°
2026-02-18 21:49 43.15579 141.63480 14296 ft 358 kts 86°
2026-02-18 21:49 43.15133 141.66813 13873 ft 356 kts 106°
2026-02-18 21:49 43.13906 141.69732 13419 ft 354 kts 127°
2026-02-18 21:50 43.12045 141.71885 13094 ft 351 kts 148°
2026-02-18 21:50 43.09730 141.73136 12799 ft 368 kts 164°
2026-02-18 21:50 43.07215 141.74138 12305 ft 381 kts 164°
2026-02-18 21:50 43.04659 141.75161 11819 ft 381 kts 164°
2026-02-18 21:51 43.02136 141.76192 11342 ft 374 kts 164°
2026-02-18 21:51 42.99682 141.77209 10867 ft 363 kts 163°
2026-02-18 21:51 42.97307 141.78199 10566 ft 348 kts 163°
2026-02-18 21:51 42.95044 141.79146 10358 ft 331 kts 163°
2026-02-18 21:52 42.92885 141.80049 10010 ft 320 kts 163°
2026-02-18 21:52 42.90802 141.80920 9810 ft 304 kts 163°
2026-02-18 21:52 42.88804 141.81756 9679 ft 304 kts 163°
2026-02-18 21:52 42.86736 141.82618 9542 ft 313 kts 163°
2026-02-18 21:53 42.82618 141.84318 9145 ft 309 kts 166°
2026-02-18 21:53 42.80520 141.84755 8821 ft 300 kts 179°
2026-02-18 21:53 42.78470 141.84921 8482 ft 289 kts 179°
2026-02-18 21:54 42.76497 141.85090 8167 ft 278 kts 179°
2026-02-18 21:54 42.74533 141.85267 7850 ft 299 kts 179°
2026-02-18 21:54 42.72355 141.85462 7587 ft 321 kts 178°
2026-02-18 21:54 42.70127 141.85676 7533 ft 316 kts 178°
2026-02-18 21:55 42.67974 141.85891 7354 ft 306 kts 178°
2026-02-18 21:55 42.65857 141.86101 6768 ft 304 kts 179°
2026-02-18 21:55 42.63750 141.86309 6250 ft 300 kts 179°
2026-02-18 21:55 42.61731 141.86508 6068 ft 286 kts 179°
2026-02-18 21:56 42.59819 141.86699 6040 ft 264 kts 180°
2026-02-18 21:56 42.58030 141.86875 6061 ft 258 kts 180°
2026-02-18 21:56 42.56221 141.87042 6006 ft 259 kts 180°
2026-02-18 21:56 42.54456 141.87058 5749 ft 250 kts 196°
2026-02-18 21:57 42.51963 141.84601 4965 ft 208 kts 258°
2026-02-18 21:57 42.51755 141.82788 4687 ft 188 kts 282°
2026-02-18 21:57 42.51887 141.81021 4477 ft 189 kts 285°
2026-02-18 21:58 42.51997 141.79256 4264 ft 188 kts 281°
2026-02-18 21:58 42.51999 141.77455 4055 ft 191 kts 277°
2026-02-18 21:58 42.52081 141.75734 3831 ft 181 kts 293°
2026-02-18 21:58 42.52713 141.74302 3623 ft 176 kts 317°
2026-02-18 21:59 42.53764 141.73517 3412 ft 178 kts 341°
2026-02-18 21:59 42.55018 141.73326 3187 ft 181 kts 349°
2026-02-18 21:59 42.56249 141.73188 3057 ft 172 kts 348°
2026-02-18 21:59 42.57384 141.73033 3030 ft 154 kts 346°
2026-02-18 22:00 42.58397 141.72771 2949 ft 142 kts 343°
2026-02-18 22:00 42.59332 141.72618 2861 ft 129 kts 346°
2026-02-18 22:00 42.60202 141.72503 2664 ft 124 kts 345°
2026-02-18 22:00 42.61062 141.72360 2361 ft 125 kts 343°
2026-02-18 22:01 42.62768 141.71927 1823 ft 121 kts 338°
2026-02-18 22:01 42.63552 141.71632 1511 ft 116 kts 333°
2026-02-18 22:01 42.64293 141.71163 1429 ft 123 kts 335°
2026-02-18 22:02 42.65135 141.70967 1425 ft 122 kts 347°
2026-02-18 22:02 42.65984 141.70904 1418 ft 122 kts 348°
2026-02-18 22:02 42.66831 141.70831 1418 ft 122 kts 348°
2026-02-18 22:02 42.67666 141.70760 1351 ft 122 kts 347°
2026-02-18 22:03 42.68512 141.70645 1250 ft 123 kts 345°
2026-02-18 22:03 42.69368 141.70501 1153 ft 124 kts 345°
2026-02-18 22:03 42.70225 141.70340 1047 ft 125 kts 345°
2026-02-18 22:03 42.71108 141.70175 959 ft 129 kts 345°
2026-02-18 22:04 42.71986 141.70021 846 ft 125 kts 345°
2026-02-18 22:04 42.72836 141.69873 589 ft 122 kts 346°
2026-02-18 22:04 42.73658 141.69742 344 ft 114 kts 343°
2026-02-18 22:04 42.74444 141.69608 275 ft 120 kts 342°
2026-02-18 22:05 42.76118 141.69306 120 ft 118 kts 342°
2026-02-18 22:05 42.76891 141.69145 63 ft 89 kts 351°
2026-02-18 22:05 42.77205 141.69099 67 ft 22 kts 354°
2026-02-18 22:06 42.77351 141.69074 70 ft 20 kts 353°
2026-02-18 22:06 42.77477 141.69021 64 ft 17 kts 312°
2026-02-18 22:06 42.77491 141.68884 74 ft 13 kts 277°
2026-02-18 22:06 42.77512 141.68785 66 ft 9 kts 284°
2026-02-18 22:07 42.77527 141.68709 66 ft 8 kts 287°
2026-02-18 22:07 42.77560 141.68649 67 ft 9 kts 316°
2026-02-18 22:07 42.77623 141.68614 61 ft 11 kts 349°
2026-02-18 22:07 42.77711 141.68599 66 ft 14 kts 352°
2026-02-18 22:08 42.77818 141.68580 62 ft 16 kts 353°
2026-02-18 22:08 42.77929 141.68559 68 ft 16 kts 352°
2026-02-18 22:08 42.78030 141.68541 67 ft 14 kts 351°
2026-02-18 22:08 42.78120 141.68499 63 ft 13 kts 334°
2026-02-18 22:09 42.78255 141.68362 70 ft 11 kts 311°
2026-02-18 22:09 42.78298 141.68279 66 ft 11 kts 304°
2026-02-18 22:09 42.78359 141.68232 67 ft 10 kts 340°
2026-02-18 22:10 42.78412 141.68186 63 ft 7 kts 324°
2026-02-18 22:10 42.78441 141.68159 63 ft 3 kts 324°
2026-02-18 22:10 42.78448 141.68152 66 ft 0 kts 324°
2026-02-18 22:10 42.78454 141.68147 66 ft 3 kts 324°
2026-02-18 22:11 42.78476 141.68125 63 ft 3 kts 324°
2026-02-18 22:11 42.78486 141.68116 66 ft 0 kts 324°
2026-02-18 22:11 42.78489 141.68113 68 ft 2 kts 324°